Regional Weather Roundup
Issued by NWS Tiyan, Guam

Home | Current Version | Previous Version | Text Only | Print | Product List | Glossary On
Versions: 1 2 3 4 5 6 7 8 9 10 11 12 13 14 15 16 17 18 19 20 21 22 23 24 25 26 27
000
ASGM40 PGUM 210912
RWRGUM
WEATHER ROUNDUP FOR THE MARIANAS
NATIONAL WEATHER SERVICE TIYAN GU
700 PM GSST MON APR 21 2014

GUZ001>004-211000-
MARIANA ISLANDS-

CITY           SKY/WX    TMP DP  RH WIND       PRES   REMARKS
GUAM AIRPORT   PTCLDY    82  77  83 E5        29.92R HX  91
ANDERSEN AFB   CLEAR     81  77  89 E6        29.93R
ROTA AIRPORT   MOCLDY    81  77  89 E6        29.94R
TINIAN AP      MOCLDY    81  75  83 E5        29.92R
SAIPAN AP      PTCLDY    81  77  89 E5        29.93R

$$




USA.gov is the U.S. government's official web portal to all federal, state and local government web resources and services.